• în România
  • Lista ţărilor
  • Pe 7 zile
  • Temperatura apei
  • Hartă satelitară
  • Meteo pe hartă
  • Widget-uri
  • user-avatar
    Intrare

    Meteo pe oră la Tirana

    Astăzi, 28 Mai, Duminică

    Timp Temperatura Precipitaţii Vânt Presiune Umiditate
    00:00 +14°C° 0 mm 4 m/s 754 mmHg 77%
    01:00 +14°C° 0 mm 4 m/s 754 mmHg 77%
    02:00 +14°C° 0 mm 4 m/s 754 mmHg 77%
    03:00 +13°C° 0 mm 4 m/s 754 mmHg 77%
    04:00 +13°C° 0 mm 5 m/s 754 mmHg 77%
    05:00 +15°C° 0 mm 5 m/s 755 mmHg 71%
    06:00 +17°C° 0 mm 5 m/s 755 mmHg 66%
    07:00 +20°C° 0 mm 5 m/s 755 mmHg 60%
    08:00 +21°C° 0 mm 5 m/s 755 mmHg 53%
    09:00 +23°C° 0 mm 5 m/s 755 mmHg 46%
    10:00 +26°C° 0 mm 4 m/s 755 mmHg 39%
    11:00 +26°C° 0 mm 5 m/s 755 mmHg 38%
    12:00 +27°C° 0 mm 5 m/s 755 mmHg 38%
    13:00 +28°C° 0 mm 5 m/s 755 mmHg 37%
    14:00 +27°C° 0 mm 5 m/s 755 mmHg 39%
    15:00 +27°C° 0 mm 6 m/s 755 mmHg 41%
    16:00 +27°C° 0 mm 6 m/s 755 mmHg 42%
    17:00 +24°C° 0 mm 6 m/s 755 mmHg 51%
    18:00 +21°C° 0 mm 6 m/s 755 mmHg 59%
    19:00 +19°C° 0 mm 5 m/s 755 mmHg 68%
    20:00 +19°C° 0 mm 5 m/s 756 mmHg 70%
    21:00 +17°C° 0 mm 5 m/s 756 mmHg 71%
    22:00 +17°C° 0 mm 4 m/s 756 mmHg 73%
    23:00 +17°C° 0 mm 4 m/s 756 mmHg 73%

    Mâine, 29 Mai, Luni

    Timp Temperatura Precipitaţii Vânt Presiune Umiditate
    00:00 +17°C° 0 mm 4 m/s 756 mmHg 74%
    01:00 +16°C° 0 mm 3 m/s 756 mmHg 75%
    02:00 +16°C° 0 mm 3 m/s 756 mmHg 75%
    03:00 +16°C° 0 mm 3 m/s 756 mmHg 76%
    04:00 +16°C° 0 mm 3 m/s 756 mmHg 76%
    05:00 +17°C° 0 mm 3 m/s 756 mmHg 71%
    06:00 +19°C° 0 mm 3 m/s 756 mmHg 66%
    07:00 +21°C° 0 mm 2 m/s 756 mmHg 60%
    08:00 +24°C° 0 mm 2 m/s 755 mmHg 54%
    09:00 +26°C° 0 mm 1 m/s 755 mmHg 47%
    10:00 +28°C° 0 mm 1 m/s 755 mmHg 40%
    11:00 +28°C° 0 mm 2 m/s 755 mmHg 40%
    12:00 +29°C° 0 mm 3 m/s 755 mmHg 40%
    13:00 +29°C° 0 mm 4 m/s 754 mmHg 40%
    14:00 +28°C° 0,1 mm 4 m/s 754 mmHg 44%
    15:00 +27°C° 0,1 mm 4 m/s 754 mmHg 47%
    16:00 +27°C° 0,1 mm 4 m/s 754 mmHg 50%
    17:00 +24°C° 0 mm 3 m/s 754 mmHg 60%
    18:00 +21°C° 0 mm 3 m/s 754 mmHg 69%
    19:00 +18°C° 0 mm 2 m/s 754 mmHg 79%
    20:00 +18°C° 0 mm 2 m/s 754 mmHg 80%
    21:00 +18°C° 0 mm 1 m/s 754 mmHg 81%
    22:00 +16°C° 0 mm 1 m/s 754 mmHg 82%
    23:00 +16°C° 0 mm 1 m/s 754 mmHg 83%

    Poimâine, 30 Mai, Marţi

    Timp Temperatura Precipitaţii Vânt Presiune Umiditate
    00:00 +16°C° 0 mm 1 m/s 754 mmHg 83%
    01:00 +16°C° 0 mm 1 m/s 754 mmHg 83%
    02:00 +15°C° 0 mm 1 m/s 754 mmHg 84%
    03:00 +15°C° 0 mm 1 m/s 754 mmHg 85%
    04:00 +15°C° 0 mm 1 m/s 754 mmHg 86%
    05:00 +18°C° 0 mm 1 m/s 754 mmHg 77%
    06:00 +21°C° 0 mm 1 m/s 754 mmHg 69%
    07:00 +23°C° 0 mm 1 m/s 754 mmHg 60%
    08:00 +25°C° 0 mm 1 m/s 754 mmHg 55%
    09:00 +26°C° 0 mm 1 m/s 754 mmHg 50%
    10:00 +27°C° 0 mm 2 m/s 754 mmHg 45%
    11:00 +28°C° 0 mm 2 m/s 754 mmHg 44%
    12:00 +28°C° 0 mm 3 m/s 754 mmHg 43%
    13:00 +29°C° 0 mm 3 m/s 754 mmHg 42%
    14:00 +28°C° 0 mm 3 m/s 754 mmHg 44%
    15:00 +27°C° 0 mm 3 m/s 754 mmHg 46%
    16:00 +27°C° 0 mm 3 m/s 754 mmHg 48%
    17:00 +24°C° 0 mm 2 m/s 754 mmHg 59%
    18:00 +22°C° 0 mm 1 m/s 754 mmHg 70%
    19:00 +17°C° 0 mm 0 m/s 754 mmHg 81%
    20:00 +18°C° 0 mm 1 m/s 755 mmHg 82%
    21:00 +18°C° 0 mm 1 m/s 755 mmHg 83%
    22:00 +16°C° 0 mm 1 m/s 755 mmHg 84%
    23:00 +16°C° 0 mm 1 m/s 755 mmHg 85%

    31 Mai, Miercuri

    Timp Temperatura Precipitaţii Vânt Presiune Umiditate
    00:00 +15°C° 0 mm 1 m/s 755 mmHg 85%
    01:00 +15°C° 0 mm 1 m/s 755 mmHg 85%
    02:00 +15°C° 0 mm 1 m/s 755 mmHg 85%
    03:00 +15°C° 0 mm 1 m/s 755 mmHg 85%
    04:00 +14°C° 0 mm 1 m/s 755 mmHg 85%
    05:00 +18°C° 0 mm 1 m/s 755 mmHg 75%
    06:00 +21°C° 0 mm 1 m/s 755 mmHg 65%
    07:00 +24°C° 0 mm 1 m/s 756 mmHg 55%
    08:00 +25°C° 0 mm 1 m/s 756 mmHg 50%
    09:00 +26°C° 0 mm 2 m/s 756 mmHg 45%
    10:00 +28°C° 0 mm 2 m/s 756 mmHg 40%
    11:00 +28°C° 0 mm 2 m/s 756 mmHg 39%
    12:00 +29°C° 0 mm 3 m/s 755 mmHg 38%
    13:00 +29°C° 0 mm 3 m/s 755 mmHg 37%
    14:00 +29°C° 0 mm 3 m/s 755 mmHg 39%
    15:00 +28°C° 0 mm 2 m/s 755 mmHg 42%
    16:00 +27°C° 0 mm 2 m/s 754 mmHg 44%
    17:00 +25°C° 0 mm 1 m/s 755 mmHg 55%
    18:00 +22°C° 0 mm 1 m/s 755 mmHg 67%
    19:00 +17°C° 0 mm 0 m/s 755 mmHg 78%
    20:00 +16°C° 0 mm 0 m/s 755 mmHg 80%
    21:00 +16°C° 0 mm 0 m/s 755 mmHg 82%
    22:00 +15°C° 0 mm 0 m/s 755 mmHg 83%
    23:00 +15°C° 0 mm 0 m/s 755 mmHg 83%

    1 Iunie, Joi

    Timp Temperatura Precipitaţii Vânt Presiune Umiditate
    00:00 +14°C° 0 mm 0 m/s 755 mmHg 84%
    01:00 +14°C° 0 mm 0 m/s 755 mmHg 84%
    02:00 +14°C° 0 mm 0 m/s 755 mmHg 84%
    03:00 +15°C° 0 mm 1 m/s 755 mmHg 84%
    04:00 +15°C° 0 mm 1 m/s 755 mmHg 84%
    05:00 +19°C° 0 mm 1 m/s 755 mmHg 72%
    06:00 +21°C° 0 mm 1 m/s 755 mmHg 61%
    07:00 +22°C° 0 mm 0 m/s 755 mmHg 50%
    08:00 +26°C° 0 mm 1 m/s 755 mmHg 46%
    09:00 +27°C° 0 mm 1 m/s 755 mmHg 42%
    10:00 +29°C° 0 mm 1 m/s 755 mmHg 38%
    11:00 +29°C° 0 mm 2 m/s 755 mmHg 38%
    12:00 +30°C° 0 mm 3 m/s 754 mmHg 38%
    13:00 +30°C° 0 mm 3 m/s 754 mmHg 37%
    14:00 +29°C° 0 mm 3 m/s 754 mmHg 39%
    15:00 +29°C° 0 mm 3 m/s 754 mmHg 41%
    16:00 +28°C° 0 mm 3 m/s 754 mmHg 43%
    17:00 +25°C° 0 mm 2 m/s 754 mmHg 54%
    18:00 +21°C° 0 mm 2 m/s 754 mmHg 65%
    19:00 +20°C° 0 mm 1 m/s 755 mmHg 76%
    20:00 +19°C° 0 mm 1 m/s 755 mmHg 78%
    21:00 +18°C° 0 mm 1 m/s 755 mmHg 80%
    22:00 +15°C° 0 mm 0 m/s 755 mmHg 82%
    23:00 +15°C° 0 mm 0 m/s 755 mmHg 81%

    2 Iunie, Vineri

    Timp Temperatura Precipitaţii Vânt Presiune Umiditate
    00:00 +15°C° 0 mm 0 m/s 755 mmHg 79%
    01:00 +15°C° 0 mm 0 m/s 755 mmHg 78%
    02:00 +14°C° 0 mm 0 m/s 755 mmHg 76%
    03:00 +15°C° 0 mm 1 m/s 754 mmHg 75%
    04:00 +15°C° 0 mm 1 m/s 754 mmHg 74%
    05:00 +19°C° 0 mm 1 m/s 754 mmHg 64%
    06:00 +22°C° 0 mm 1 m/s 755 mmHg 54%
    07:00 +25°C° 0 mm 1 m/s 755 mmHg 44%
    08:00 +26°C° 0 mm 1 m/s 755 mmHg 41%
    09:00 +28°C° 0 mm 1 m/s 755 mmHg 37%
    10:00 +30°C° 0 mm 2 m/s 755 mmHg 34%
    11:00 +30°C° 0 mm 3 m/s 754 mmHg 34%
    12:00 +30°C° 0 mm 3 m/s 754 mmHg 34%
    13:00 +32°C° 0 mm 4 m/s 754 mmHg 35%
    14:00 +30°C° 0 mm 4 m/s 754 mmHg 39%
    15:00 +29°C° 0 mm 4 m/s 754 mmHg 43%
    16:00 +28°C° 0 mm 4 m/s 754 mmHg 47%
    17:00 +26°C° 0 mm 3 m/s 754 mmHg 59%
    18:00 +22°C° 0 mm 3 m/s 754 mmHg 71%
    19:00 +20°C° 0 mm 2 m/s 754 mmHg 83%
    20:00 +19°C° 0 mm 2 m/s 754 mmHg 84%
    21:00 +18°C° 0 mm 2 m/s 754 mmHg 85%
    22:00 +19°C° 0 mm 1 m/s 755 mmHg 86%
    23:00 +18°C° 0 mm 2 m/s 754 mmHg 86%
    Arată mai mult